Overview Statistics Trail Chart Weather Telemetry Raw packets
 

This is the latest recevied weather packets stored in our database for station/object HS3UAA-1. If no packets are shown the sender has not sent any weather packets the latest 10 day(s).

<< 100 101 102 103 >>
Time Temp. Humidity Pressure Rain* Wind** Luminosity Snow
1787827357 31.11° C 40% 993 hPa - - 0 W/m² -
1787827035 30° C 41% 993 hPa - - 0 W/m² -
1787826713 28.89° C 44% 993 hPa - - 0 W/m² -
1787826391 28.33° C 42% 993 hPa - - 0 W/m² -
1787826069 28.89° C 42% 993 hPa - - 0 W/m² -
1787825747 28.33° C 46% 993 hPa - - 0 W/m² -
1787825425 28.33° C 42% 993 hPa - - 0 W/m² -
1787825103 28.89° C 43% 993 hPa - - 0 W/m² -
1787824781 28.33° C 41% 993 hPa - - 0 W/m² -
1787824459 28.89° C 40% 993 hPa - - 0 W/m² -
1787824136 28.33° C 41% 993 hPa - - 0 W/m² -
1787823814 28.33° C 42% 993 hPa - - 0 W/m² -
1787823483 28.89° C 41% 993 hPa - - 0 W/m² -
1787823161 28.33° C 41% 993 hPa - - 0 W/m² -
1787822839 28.33° C 41% 993 hPa - - 0 W/m² -
1787822517 28.33° C 43% 993 hPa - - 0 W/m² -
1787822195 28.33° C 43% 993 hPa - - 0 W/m² -
1787821874 28.33° C 41% 993 hPa - - 0 W/m² -
1787821548 28.33° C 42% 993 hPa - - 0 W/m² -
1787821226 28.33° C 41% 993 hPa - - 0 W/m² -
1787820905 28.33° C 41% 993 hPa - - 0 W/m² -
1787820582 27.78° C 42% 993 hPa - - 0 W/m² -
1787820260 28.33° C 41% 993 hPa - - 0 W/m² -
1787819938 28.33° C 41% 993 hPa - - 0 W/m² -
1787819616 28.33° C 41% 993 hPa - - 0 W/m² -

* Rain since midnight (hover to see other rain measurements)
** Current wind speed in m/s (hover to see current wind gust speed)